Location: Platte
(43.3870°N, 98.8440°W)
Time: 11:32:05
(UTC-05:00)

Abrixas rocket - Pass Details

Date: 21 May 2018
Orbit: 383 x 393 km, 48.4° (Epoch: 20 June)

Event Time Altitude Azimuth Distance (km) Brightness Sun altitude
Rises 21:42:33 0° 194° (SSW) 2,279 5.7 -7.4°
Reaches altitude 10° 21:45:32 10° 163° (SSE) 1,429 4.5 -7.8°
Maximum altitude 21:46:58 12° 136° (SE) 1,295 4.1 -8.0°
Enters shadow 21:48:07 11° 114° (ESE) 1,387 4.2 -8.2°
